Frederick, OK

1:03 AM CST on February 14, 2016 (GMT -0600)
Frederick Municipal

Weather History for KFDR - September, 2013

Change the Weather History Date:

Sunday, September 29, 2013

  Actual Average (KLTS) Record (KLTS)
Temperature  
Mean Temperature 66 °F -  
Max Temperature 79 °F 80 °F 100 °F (1998)
Min Temperature 53 °F 56 °F 46 °F (1999)
Growing Degree Days 16 (Base 50)    
Moisture  
Dew Point 46 °F    
Average Humidity 56    
Maximum Humidity 83    
Minimum Humidity 24    
Precipitation  
Precipitation 0.00 in - - ()
Sea Level Pressure  
Sea Level Pressure 30.00 in    
Wind  
Wind Speed 6 mph (NW)    
Max Wind Speed 10 mph    
Max Gust Speed -    
Visibility 10 miles    
Events      
Averages and records for this station are not official NWS values.
T = Trace of Precipitation, MM = Missing Value Source: NWS Daily Summary

Daily Weather History Graph

Daily Weather History Graph

Search for Another Location

Airport or City:

Trip Planner

Search our weather history database for the weather conditions in past years. The results will help you decide how hot, cold, wet, or windy it might be!

Date:

Astronomy

Sep. 29, 2013 Rise Set
Actual Time 7:29 AM CDT 7:22 PM CDT
Civil Twilight 7:04 AM CDT 7:47 PM CDT
Nautical Twilight 6:35 AM CDT 8:16 PM CDT
Astronomical Twilight 6:05 AM CDT 8:45 PM CDT
Moon 2:23 AM CDT (9/29) 4:08 PM CDT (9/29)
Length of Visible Light 12h 43m
Length of Day
11h 53m
Waning Crescent, 27% of the Moon is Illuminated
Sep 29
Waning Crescent
Oct 4
New
Oct 11
First Quarter
Oct 18
Full
Oct 26
Last Quarter

Hourly Weather History & Observations

Time (CDT) Temp. Dew Point Humidity Pressure Visibility Wind Dir Wind Speed Gust Speed Precip Events Conditions
12:53 AM 57.0 °F 48.9 °F 74% 30.09 in 10.0 mi North 5.8 mph - N/A   Clear
1:53 AM 55.9 °F 48.9 °F 77% 30.08 in 10.0 mi North 5.8 mph - N/A   Clear
2:53 AM 55.9 °F 46.9 °F 72% 30.07 in 10.0 mi North 6.9 mph - N/A   Clear
3:53 AM 54.0 °F 48.9 °F 83% 30.06 in 10.0 mi NNW 6.9 mph - N/A   Clear
4:53 AM 54.0 °F 48.0 °F 80% 30.05 in 10.0 mi NNW 8.1 mph - N/A   Clear
5:53 AM 53.1 °F 48.0 °F 83% 30.06 in 10.0 mi North 5.8 mph - N/A   Clear
6:53 AM 54.0 °F 46.9 °F 77% 30.07 in 10.0 mi North 8.1 mph - N/A   Clear
7:53 AM 54.0 °F 48.0 °F 80% 30.07 in 10.0 mi North - - N/A   Clear
8:53 AM 61.0 °F 51.1 °F 70% 30.08 in 10.0 mi North 5.8 mph - N/A   Clear
9:53 AM 66.9 °F 48.9 °F 52% 30.08 in 10.0 mi NW 5.8 mph - N/A   Clear
10:53 AM 70.0 °F 50.0 °F 49% 30.08 in 9.0 mi NW 5.8 mph - N/A   Clear
11:53 AM 72.0 °F 46.0 °F 40% 30.06 in 10.0 mi Variable 3.5 mph - N/A   Clear
12:53 PM 73.9 °F 44.1 °F 34% 30.04 in 10.0 mi Variable 4.6 mph - N/A   Clear
1:53 PM 75.9 °F 41.0 °F 29% 29.99 in 10.0 mi Calm Calm - N/A   Clear
2:53 PM 75.9 °F 39.9 °F 27% 29.96 in 10.0 mi Calm Calm - N/A   Clear
3:53 PM 78.1 °F 39.9 °F 25% 29.93 in 10.0 mi Variable 3.5 mph - N/A   Clear
4:53 PM 78.1 °F 37.9 °F 24% 29.91 in 10.0 mi Calm Calm - N/A   Clear
5:53 PM 77.0 °F 41.0 °F 28% 29.90 in 10.0 mi South 5.8 mph - N/A   Clear
6:53 PM 75.0 °F 43.0 °F 32% 29.89 in 10.0 mi South 5.8 mph - N/A   Clear
7:53 PM 68.0 °F 51.1 °F 55% 29.90 in 10.0 mi SSE 6.9 mph - N/A   Clear
8:53 PM 64.9 °F 48.9 °F 56% 29.91 in 10.0 mi South 8.1 mph - N/A   Clear
9:53 PM 62.1 °F 48.9 °F 62% 29.89 in 10.0 mi SE 10.4 mph - N/A   Clear
10:53 PM 61.0 °F 48.0 °F 62% 29.91 in 10.0 mi South 5.8 mph - N/A   Clear
11:53 PM 59.0 °F 48.9 °F 69% 29.90 in 10.0 mi SSW 5.8 mph - N/A   Clear